Weather in Pyatirechye

Russia / Sakhalin District     47°00′54″N   142°15′42″E
temp.,
°C
wind,
m/s
gust,
m/s
humid.,
%
clouds,
%
prec.,
mm/h
press.,
hPa
HPBL,
m
29 july, thu
thu2923:00+21se119880 0.0 100522
02:00+19sse11964 0.0 100511
05:00+18sse11951 0.0 100411
08:00+22n00835 0.0 100555
11:00+29wsw24535 0.0 1004906
14:00+31w44505 0.0 10031361
17:00+29wsw55555 0.0 1003973
20:00+24wsw14815 0.0 1003280
30 july, fri
fri3023:00+20s119556 0.0 100412
02:00+20sse2295100 0.0 100332
05:00+20s129795 0.0 100238
08:00+22ssw2987100 0.0 1003560
11:00+27sw466672 0.0 10021228
14:00+28sw456161 0.1 10021356
17:00+26wsw456898 0.4 10021065
20:00+23w248321 0.1 1003476
31 july, sat
sat3123:00+20nne0099100 0.1 100411
02:00+20e0099100 0.0 100511
05:00+19ese0098100 0.0 100411
08:00+21e1195100 0.0 100641
11:00+24ese128189 0.1 1006548
14:00+23e2282100 0.7 1007555
17:00+22e2381100 0.9 1007346
20:00+20ese2485100 0.0 1009271
1 august, sun
sun123:00+15e229883 0.0 101078
02:00+15e229945 0.0 101075
05:00+15ese239866 0.0 1010115
08:00+17e239159 0.0 1010233
11:00+23se456919 0.0 1009667
14:00+27se445610 0.0 10081140
17:00+26se56610 0.0 1008868
20:00+21se37810 0.0 1009453
2 august, mon
mon223:00+16ese249941 0.0 1009141
02:00+17ese3997100 0.0 1009397
05:00+17ese259894 0.0 1008262
08:00+19ese2495100 0.0 1008244
11:00+20se239287 0.0 1007265
14:00+29sw235345 0.0 10061127
17:00+29wsw34556 0.0 10061160
20:00+24wsw128296 0.0 100660